Weather History for Sturgis, MI

Change the Weather History Date:

Tuesday, January 28, 2014

  Actual Average (KHAI) Record (KHAI)
Temperature  
Mean Temperature -8 °F -  
Max Temperature 1 °F 30 °F 51 °F (1990)
Min Temperature -16 °F 15 °F -15 °F (2014)
Degree Days  
Heating Degree Days 72    
Moisture  
Dew Point -16 °F    
Average Humidity 69    
Maximum Humidity 84    
Minimum Humidity 47    
Precipitation  
Precipitation 0.00 in - - ()
Sea Level Pressure  
Sea Level Pressure 30.29 in    
Wind  
Wind Speed 8 mph (SW)    
Max Wind Speed 14 mph    
Max Gust Speed -    
Visibility 10 miles    
Events      
Averages and records for this station are not official NWS values.
T = Trace of Precipitation, MM = Missing Value Source: NWS Daily Summary

Daily Weather History Graph

Daily Weather History Graph

Search for Another Location

Airport:

Trip Planner

Search our weather history database for the weather conditions in past years. The results will help you decide how hot, cold, wet, or windy it might be!

Date:

Astronomy

Jan. 28, 2014 Rise Set
Actual Time 7:57 AM EST 5:52 PM EST
Civil Twilight 7:28 AM EST 6:21 PM EST
Nautical Twilight 6:54 AM EST 6:55 PM EST
Astronomical Twilight 6:21 AM EST 7:28 PM EST
Moon 5:39 AM EST (1/28) 3:40 PM EST (1/28)
Length of Visible Light 10h 53m
Length of Day
9h 54m
Waning Crescent, 7% of the Moon is Illuminated
Jan 28
Waning Crescent
Jan 30
New
Feb 6
First Quarter
Feb 14
Full
Feb 22
Last Quarter

Hourly Weather History & Observations

Time (EST) Temp. Windchill Dew Point Humidity Pressure Visibility Wind Dir Wind Speed Gust Speed Precip Events Conditions
12:15 AM -9.4 °F -22.7 °F -14.8 °F 77% 30.31 in 10.0 mi SW 5.8 mph - N/A   Clear
12:34 AM -11.2 °F -24.8 °F -14.8 °F 84% 30.31 in 10.0 mi SW 5.8 mph - N/A   Clear
12:55 AM -9.4 °F -24.3 °F -14.8 °F 77% 30.31 in 10.0 mi WSW 6.9 mph - N/A   Clear
1:15 AM -7.6 °F -22.1 °F -13.0 °F 77% 30.31 in 10.0 mi SW 6.9 mph - N/A   Clear
1:35 AM -11.2 °F -26.4 °F -16.6 °F 77% 30.31 in 10.0 mi SW 6.9 mph - N/A   Clear
1:55 AM -11.2 °F -24.8 °F -16.6 °F 77% 30.32 in 10.0 mi SW 5.8 mph - N/A   Clear
2:15 AM -11.2 °F -27.8 °F -16.6 °F 77% 30.31 in 10.0 mi SW 8.1 mph - N/A   Clear
2:35 AM -11.2 °F -27.8 °F -16.6 °F 77% 30.31 in 10.0 mi SW 8.1 mph - N/A   Clear
2:55 AM -11.2 °F -27.8 °F -16.6 °F 77% 30.32 in 10.0 mi SW 8.1 mph - N/A   Clear
3:15 AM -11.2 °F -27.8 °F -16.6 °F 77% 30.33 in 10.0 mi SW 8.1 mph - N/A   Clear
3:35 AM -13.0 °F -28.6 °F -18.4 °F 77% 30.32 in 10.0 mi SW 6.9 mph - N/A   Clear
3:55 AM -13.0 °F -28.6 °F -18.4 °F 77% 30.32 in 10.0 mi SW 6.9 mph - N/A   Clear
4:15 AM -13.0 °F -28.6 °F -18.4 °F 77% 30.32 in 10.0 mi SSW 6.9 mph - N/A   Scattered Clouds
4:35 AM -14.8 °F -29.1 °F -18.4 °F 84% 30.31 in 10.0 mi SW 5.8 mph - N/A   Clear
4:55 AM -14.8 °F -27.2 °F -18.4 °F 84% 30.31 in 10.0 mi SW 4.6 mph - N/A   Clear
5:15 AM -14.8 °F -30.8 °F -18.4 °F 84% 30.31 in 10.0 mi SW 6.9 mph - N/A   Clear
5:35 AM -14.8 °F -29.1 °F -18.4 °F 84% 30.32 in 10.0 mi SW 5.8 mph - N/A   Clear
5:55 AM -14.8 °F -27.2 °F -20.2 °F 77% 30.33 in 10.0 mi SW 4.6 mph - N/A   Clear
6:15 AM -14.8 °F -29.1 °F -20.2 °F 77% 30.33 in 10.0 mi SW 5.8 mph - N/A   Clear
6:35 AM -14.8 °F -29.1 °F -20.2 °F 77% 30.32 in 10.0 mi SSW 5.8 mph - N/A   Clear
6:55 AM -14.8 °F -30.8 °F -20.2 °F 77% 30.32 in 10.0 mi SSW 6.9 mph - N/A   Clear
7:15 AM -16.6 °F -35.7 °F -20.2 °F 84% 30.34 in 10.0 mi SSW 9.2 mph - N/A   Clear
7:35 AM -14.8 °F -33.5 °F -20.2 °F 77% 30.35 in 10.0 mi SW 9.2 mph - N/A   Clear
7:55 AM -14.8 °F -29.1 °F -20.2 °F 77% 30.33 in 10.0 mi SW 5.8 mph - N/A   Clear
8:15 AM -14.8 °F -27.2 °F -20.2 °F 77% 30.34 in 7.0 mi SW 4.6 mph - N/A   Clear
8:35 AM -14.8 °F -29.1 °F -20.2 °F 77% 30.33 in 10.0 mi SSW 5.8 mph - N/A   Clear
8:55 AM -14.8 °F -30.8 °F -18.4 °F 84% 30.34 in 10.0 mi SSW 6.9 mph - N/A   Clear
9:15 AM -13.0 °F -30.0 °F -18.4 °F 77% 30.35 in 10.0 mi SSW 8.1 mph - N/A   Clear
9:35 AM -11.2 °F -24.8 °F -18.4 °F 70% 30.34 in 10.0 mi SSW 5.8 mph - N/A   Clear
9:55 AM -11.2 °F -27.8 °F -16.6 °F 77% 30.35 in 10.0 mi SSW 8.1 mph - N/A   Clear
10:15 AM -9.4 °F -26.8 °F -16.6 °F 71% 30.34 in 10.0 mi SW 9.2 mph - N/A   Clear
10:35 AM -9.4 °F -22.7 °F -16.6 °F 71% 30.35 in 10.0 mi SSW 5.8 mph - N/A   Clear
10:55 AM -7.6 °F -23.4 °F -14.8 °F 71% 30.35 in 10.0 mi SW 8.1 mph - N/A   Clear
11:15 AM -7.6 °F -26.6 °F -14.8 °F 71% 30.35 in 10.0 mi SW 11.5 mph - N/A   Clear
11:35 AM -5.8 °F -22.4 °F -14.8 °F 65% 30.35 in 10.0 mi SW 9.2 mph - N/A   Clear
11:55 AM -5.8 °F -22.4 °F -14.8 °F 65% 30.34 in 10.0 mi SW 9.2 mph - N/A   Clear
12:15 PM -5.8 °F -22.4 °F -14.8 °F 65% 30.33 in 10.0 mi SW 9.2 mph - N/A   Clear
12:35 PM -2.2 °F -18.0 °F -14.8 °F 55% 30.32 in 10.0 mi SW 9.2 mph - N/A   Clear
12:55 PM -2.2 °F -16.8 °F -14.8 °F 55% 30.31 in 10.0 mi SW 8.1 mph - N/A   Clear
1:15 PM -0.4 °F -16.7 °F -14.8 °F 51% 30.30 in 10.0 mi SW 10.4 mph - N/A   Clear
1:35 PM -0.4 °F -16.7 °F -14.8 °F 51% 30.29 in 10.0 mi SW 10.4 mph - N/A   Clear
1:55 PM -0.4 °F -16.7 °F -13.0 °F 55% 30.29 in 10.0 mi SW 10.4 mph - N/A   Clear
2:15 PM -0.4 °F -17.6 °F -13.0 °F 55% 30.28 in 10.0 mi SW 11.5 mph - N/A   Clear
2:35 PM 1.4 °F -15.3 °F -13.0 °F 51% 30.27 in 10.0 mi SW 11.5 mph - N/A   Clear
2:55 PM 1.4 °F -14.5 °F -13.0 °F 51% 30.27 in 10.0 mi WSW 10.4 mph - N/A   Clear
3:15 PM 1.4 °F -15.3 °F -13.0 °F 51% 30.26 in 10.0 mi SW 11.5 mph - N/A   Clear
3:35 PM 1.4 °F -16.9 °F -13.0 °F 51% 30.25 in 10.0 mi SW 13.8 mph - N/A   Clear
3:54 PM 1.4 °F -13.5 °F -14.8 °F 47% 30.25 in 10.0 mi WSW 9.2 mph - N/A   Clear
4:15 PM 1.4 °F -15.3 °F -13.0 °F 51% 30.25 in 10.0 mi SW 11.5 mph - N/A   Clear
4:35 PM -0.4 °F -17.6 °F -13.0 °F 55% 30.25 in 10.0 mi SW 11.5 mph - N/A   Clear
4:54 PM -0.4 °F -19.2 °F -13.0 °F 55% 30.25 in 10.0 mi SW 13.8 mph - N/A   Clear
5:15 PM -0.4 °F -16.7 °F -13.0 °F 55% 30.25 in 10.0 mi SW 10.4 mph - N/A   Clear
5:35 PM -0.4 °F -15.7 °F -13.0 °F 55% 30.24 in 10.0 mi SW 9.2 mph - N/A   Clear
5:54 PM -2.2 °F -16.8 °F -14.8 °F 55% 30.24 in 10.0 mi SW 8.1 mph - N/A   Clear
6:15 PM -2.2 °F -16.8 °F -13.0 °F 60% 30.24 in 10.0 mi WSW 8.1 mph - N/A   Clear
6:35 PM -4.0 °F -19.0 °F -14.8 °F 60% 30.24 in 10.0 mi WSW 8.1 mph - N/A   Clear
6:54 PM -4.0 °F -17.8 °F -14.8 °F 60% 30.24 in 10.0 mi SW 6.9 mph - N/A   Clear
7:15 PM -5.8 °F -21.2 °F -14.8 °F 65% 30.24 in 10.0 mi SW 8.1 mph - N/A   Clear
7:35 PM -5.8 °F -19.9 °F -14.8 °F 65% 30.24 in 10.0 mi WSW 6.9 mph - N/A   Clear
7:55 PM -5.8 °F -19.9 °F -14.8 °F 65% 30.23 in 10.0 mi SW 6.9 mph - N/A   Clear
8:15 PM -5.8 °F -22.4 °F -14.8 °F 65% 30.22 in 10.0 mi SW 9.2 mph - N/A   Clear
8:35 PM -7.6 °F -24.6 °F -14.8 °F 71% 30.22 in 10.0 mi SW 9.2 mph - N/A   Clear
8:55 PM -7.6 °F -22.1 °F -14.8 °F 71% 30.21 in 10.0 mi SW 6.9 mph - N/A   Clear
9:15 PM -7.6 °F -22.1 °F -14.8 °F 71% 30.20 in 10.0 mi SW 6.9 mph - N/A   Clear
9:35 PM -7.6 °F -22.1 °F -14.8 °F 71% 30.20 in 10.0 mi SW 6.9 mph - N/A   Clear
9:55 PM -7.6 °F -23.4 °F -14.8 °F 71% 30.20 in 10.0 mi SW 8.1 mph - N/A   Clear
10:15 PM -7.6 °F -24.6 °F -14.8 °F 71% 30.20 in 10.0 mi SW 9.2 mph - N/A   Clear
10:35 PM -5.8 °F -22.4 °F -13.0 °F 71% 30.20 in 10.0 mi WSW 9.2 mph - N/A   Clear
10:55 PM -5.8 °F -22.4 °F -13.0 °F 71% 30.19 in 10.0 mi SW 9.2 mph - N/A   Clear
11:15 PM -7.6 °F -23.4 °F -13.0 °F 77% 30.19 in 10.0 mi SW 8.1 mph - N/A   Clear
11:35 PM -5.8 °F -23.4 °F -13.0 °F 71% 30.18 in 10.0 mi SW 10.4 mph - N/A   Clear
11:55 PM -5.8 °F -24.4 °F -11.2 °F 77% 30.18 in 10.0 mi SSW 11.5 mph - N/A   Clear